Home   Weather   Santa Cruz de Tenerife   Past weeks
Flag for Spain

Past Weather in Santa Cruz de Tenerife, Canary Islands, Spain — Yesterday and Last 2 Weeks

Now
63 °F

Passing clouds.


Feels Like: 63 °F
Forecast: 74 / 69 °F
Wind: 12 mph from Northwest

Location: Tenerife / Los Rodeos

Current Time: Oct 17, 2019 at 10:29:22 am

Latest Report: Oct 17, 2019 at 9:30 am


Visibility: N/A

Pressure: 30.21 "Hg

Humidity: 77%

Dew Point: 55 °F

Location of Santa Cruz de TenerifeLocation

Past Weather in Santa Cruz de Tenerife — Graph

°F

Santa Cruz de Tenerife Temperature Yesterday

Maximum temperature yesterday: 68 °F (at 12:30 pm)
Minimum temperature yesterday: 59 °F (at 1:00 am)
Average temperature yesterday: 63 °F

High & Low Weather Summary for the Past Weeks

 TemperatureHumidityPressure
High91 °F (Oct 2, 1:30 pm)100% (Oct 4, 8:30 am)30.24 "Hg (Oct 4, 8:30 am)
Low57 °F (Oct 13, 3:00 am)9% (Oct 2, 12:30 pm)30.04 "Hg (Oct 12, 6:00 pm)
Average67 °F76%30.14 "Hg
* Reported Oct 2 9:00 am — Oct 17 9:00 am, Santa Cruz de Tenerife. Weather by CustomWeather, © 2019

Note: Actual official high and low records may vary slightly from our data, if they occured in-between our weather recording intervals... More about our weather records

Advertising

Santa Cruz de Tenerife Weather History for the Previous 24 Hours

Scroll right to see more
 ConditionsComfort  
Time TempWeatherWind HumidityBarometerVisibility
9:00 am
Thu, Oct 17
61 °FPassing clouds.9 mph83%30.21 "HgN/A
8:30 am57 °FPassing clouds.6 mph88%30.21 "HgN/A
8:00 am57 °FPassing clouds.5 mph88%30.21 "HgN/A
7:30 am57 °FPassing clouds.5 mph88%30.21 "HgN/A
7:00 am57 °FPassing clouds.2 mph88%30.21 "HgN/A
6:30 am57 °FPassing clouds.5 mph88%30.18 "HgN/A
6:00 am59 °FPassing clouds.3 mph82%30.18 "HgN/A
5:30 am59 °FCool.5 mph82%30.21 "HgN/A
5:00 am59 °FCool.5 mph88%30.18 "HgN/A
4:30 am59 °FCool.6 mph88%30.18 "HgN/A
4:00 am59 °FCool.6 mph82%30.21 "HgN/A
3:30 am59 °FPassing clouds.6 mph82%30.21 "HgN/A
3:00 am61 °FPassing clouds.6 mph77%30.21 "HgN/A
2:30 am59 °FPassing clouds.6 mph82%30.21 "HgN/A
2:00 am59 °FPassing clouds.6 mph82%30.21 "HgN/A
1:30 am61 °FClear.3 mph77%30.21 "Hg10 mi
1:00 am59 °FClear.2 mph82%30.24 "Hg10 mi
12:30 am59 °FCool.3 mph82%30.24 "HgN/A
12:00 am59 °FCool.5 mph82%30.24 "HgN/A
11:30 pm
Wed, Oct 16
59 °FCool.3 mph82%30.24 "HgN/A
11:00 pm59 °FPassing clouds.3 mph82%30.24 "HgN/A
10:30 pm59 °FClear.5 mph77%30.24 "Hg10 mi
10:00 pm61 °FClear.3 mph68%30.24 "Hg10 mi
9:30 pm61 °FPassing clouds.No wind68%30.21 "HgN/A
9:00 pm63 °FPassing clouds.No wind64%30.21 "HgN/A
8:30 pm63 °FPassing clouds.2 mph68%30.18 "HgN/A
8:00 pm63 °FPassing clouds.3 mph83%30.18 "HgN/A
7:30 pm63 °FScattered clouds.5 mph83%30.18 "HgN/A
7:00 pm64 °FPartly sunny.7 mph78%30.18 "HgN/A
6:30 pm64 °FPartly sunny.7 mph78%30.18 "HgN/A
6:00 pm64 °FPartly sunny.9 mph78%30.18 "HgN/A
5:30 pm64 °FPartly sunny.8 mph78%30.18 "HgN/A
5:00 pm64 °FPartly sunny.9 mph78%30.18 "HgN/A
4:30 pm64 °FPartly sunny.10 mph78%30.18 "HgN/A
4:00 pm66 °FPartly sunny.10 mph73%30.18 "HgN/A
3:30 pm66 °FPartly sunny.10 mph73%30.18 "HgN/A
3:00 pm66 °FPartly sunny.10 mph73%30.18 "HgN/A
2:30 pm64 °FPartly sunny.9 mph78%30.21 "HgN/A
2:00 pm66 °FPartly sunny.9 mph73%30.21 "HgN/A
1:30 pm66 °FPartly sunny.9 mph73%30.21 "HgN/A
1:00 pm66 °FPartly sunny.9 mph78%30.24 "HgN/A
12:30 pm68 °FPartly sunny.3 mph69%30.24 "HgN/A
12:00 pm66 °FScattered clouds.5 mph68%30.24 "HgN/A
11:30 am66 °FScattered clouds.6 mph68%30.24 "HgN/A
11:00 am64 °FPartly sunny.2 mph78%30.24 "HgN/A
10:30 am64 °FPartly sunny.No wind78%30.24 "HgN/A
10:00 am64 °FPartly sunny.2 mph78%30.21 "HgN/A
Weather by CustomWeather, © 2019

See weather overview